CW7911 Weather Reports


Display with metric or nautical units.
time (UTC)temp
F
wind
direction
speed
MPH
gust
MPH
rain 1hr
in
rain 24hr
in
rain mn
in
humidity
%
barometer
mb
20260506002820 55 174 0.0 0.0 0.00 0.02 0.02 90 1005.6
20260506002316 55 174 0.0 0.0 0.00 0.02 0.02 90 1005.1
20260506001812 55 174 0.0 0.0 0.00 0.02 0.02 89 1004.9
20260506001310 57 174 0.0 0.0 0.00 0.02 0.02 90 1005.0
20260506000806 59 174 0.0 0.0 0.00 0.02 0.02 93 1004.8
20260506000304 60 174 0.0 0.0 0.00 0.02 0.02 92 1004.7
20260505235801 60 174 0.0 0.0 0.00 0.02 0.02 92 1004.5
20260505235258 60 174 0.0 0.0 0.00 0.02 0.02 91 1004.3
20260505234755 60 174 0.0 0.0 0.00 0.02 0.02 91 1004.4
20260505234253 61 174 0.0 0.0 0.00 0.02 0.02 90 1004.2
20260505233749 61 174 0.0 0.0 0.00 0.02 0.02 89 1004.1
20260505233247 62 174 0.0 0.0 0.00 0.02 0.02 88 1004.0
20260505232744 62 174 0.0 0.0 0.00 0.02 0.02 88 1003.7
20260505232242 63 174 0.0 0.0 0.00 0.02 0.02 84 1003.7
20260505231738 64 174 0.0 0.0 0.00 0.02 0.02 80 1004.0
20260505231237 65 174 2.0 3.0 0.00 0.02 0.02 71 1004.2
20260505230735 65 174 0.0 0.0 0.00 0.02 0.02 73 1003.9
20260505230231 65 174 1.0 4.0 0.12 0.02 0.02 70 1003.8
20260505225728 65 174 0.0 2.0 0.12 0.02 0.02 71 1004.0
20260505225225 66 174 0.0 2.0 0.00 0.00 0.00 73 1003.9
20260505224720 66 174 0.0 8.0 0.00 0.00 0.00 69 1003.8
20260505224218 68 174 2.0 4.0 0.00 0.00 0.00 64 1004.1
20260505223716 69 174 3.0 8.0 0.00 0.00 0.00 58 1004.0
20260505223211 71 174 2.0 8.0 0.00 0.00 0.00 55 1003.6
20260505222708 69 174 3.0 6.0 0.00 0.00 0.00 52 1003.8
20260505222203 69 174 0.0 0.0 0.00 0.00 0.00 53 1001.8
20260505221701 69 174 0.0 0.0 0.00 0.00 0.00 52 1001.7
20260505221158 69 174 0.0 0.0 0.00 0.00 0.00 52 1001.8
20260505220655 69 174 0.0 1.0 0.00 0.00 0.00 51 1001.5
20260505220153 69 174 0.0 0.0 0.00 0.00 0.00 50 1001.4
20260505215650 69 174 1.0 2.0 0.00 0.00 0.00 50 1001.1
20260505215148 69 174 0.0 0.0 0.00 0.00 0.00 52 1001.2
20260505214645 69 174 0.0 0.0 0.00 0.00 0.00 52 1001.2
20260505214142 70 174 0.0 1.0 0.00 0.00 0.00 50 1001.1
20260505213640 71 174 0.0 1.0 0.00 0.00 0.00 48 1001.3
20260505213136 72 174 0.0 0.0 0.00 0.00 0.00 48 1000.9
20260505212632 73 174 0.0 0.0 0.00 0.00 0.00 46 1000.8
20260505212130 73 174 0.0 0.0 0.00 0.00 0.00 46 1000.9
20260505211627 73 174 2.0 2.0 0.00 0.00 0.00 46 1001.0
20260505211124 73 174 0.0 1.0 0.00 0.00 0.00 45 1000.7
20260505210621 73 174 0.0 0.0 0.00 0.00 0.00 45 1000.7
20260505210117 74 174 2.0 3.0 0.00 0.00 0.00 44 1000.6
20260505205615 74 174 1.0 2.0 0.00 0.00 0.00 46 1000.5
20260505205113 74 174 1.0 3.0 0.00 0.00 0.00 45 1000.8
20260505204610 74 174 0.0 1.0 0.00 0.00 0.00 45 1000.6
20260505204107 75 174 0.0 2.0 0.00 0.00 0.00 43 1000.8
20260505203604 73 174 0.0 1.0 0.00 0.00 0.00 44 1000.9
20260505203101 73 174 0.0 0.0 0.00 0.00 0.00 45 1000.7
20260505202556 75 174 1.0 2.0 0.00 0.00 0.00 42 1000.7
20260505202053 75 174 0.0 0.0 0.00 0.00 0.00 43 1000.7
20260505201550 75 174 0.0 1.0 0.00 0.00 0.00 43 1000.9
20260505201048 72 174 1.0 2.0 0.00 0.00 0.00 43 1000.8
20260505200545 71 174 0.0 0.0 0.00 0.00 0.00 46 1000.9
20260505200042 71 174 0.0 1.0 0.00 0.00 0.00 44 1001.0
20260505195538 76 174 1.0 3.0 0.00 0.00 0.00 41 1000.8
20260505195036 75 174 2.0 2.0 0.00 0.00 0.00 41 1000.9
20260505194533 75 174 0.0 0.0 0.00 0.00 0.00 42 1001.4
20260505194028 77 174 2.0 2.0 0.00 0.00 0.00 40 1001.3
20260505193525 75 174 1.0 2.0 0.00 0.00 0.00 41 1001.1
20260505193023 74 174 0.0 1.0 0.00 0.00 0.00 43 1001.4
20260505192521 74 174 1.0 3.0 0.00 0.00 0.00 45 1001.4
20260505192018 75 174 0.0 2.0 0.00 0.00 0.00 41 1001.5
20260505191516 77 174 3.0 6.0 0.00 0.00 0.00 40 1001.6
20260505191014 80 174 0.0 2.0 0.00 0.00 0.00 37 1001.5
20260505190508 82 174 0.0 3.0 0.00 0.00 0.00 30 1001.4
20260505190005 83 174 1.0 3.0 0.00 0.00 0.00 30 1001.2
20260505185501 79 174 1.0 6.0 0.00 0.00 0.00 32 1001.7
20260505184952 79 174 1.0 2.0 0.00 0.00 0.00 33 1002.0
20260505184449 82 174 0.0 4.0 0.00 0.00 0.00 32 1001.9
20260505183945 80 174 0.0 3.0 0.00 0.00 0.00 33 1002.0
20260505183443 80 174 2.0 6.0 0.00 0.00 0.00 32 1002.1
20260505182939 80 174 1.0 6.0 0.00 0.00 0.00 33 1002.1
20260505182436 80 174 1.0 2.0 0.00 0.00 0.00 34 1002.2
20260505181932 80 174 0.0 2.0 0.00 0.00 0.00 33 1002.3
20260505181430 81 174 2.0 3.0 0.00 0.00 0.00 32 1002.3
20260505180927 82 174 2.0 2.0 0.00 0.00 0.00 32 1002.3
20260505180423 80 174 0.0 2.0 0.00 0.00 0.00 31 1002.3
20260505175920 81 174 1.0 3.0 0.00 0.00 0.00 33 1002.3
20260505175416 82 174 3.0 3.0 0.00 0.00 0.00 31 1002.5
20260505174912 81 174 1.0 9.0 0.00 0.00 0.00 32 1002.4
20260505174410 81 174 1.0 4.0 0.00 0.00 0.00 31 1002.6
20260505173906 80 174 1.0 4.0 0.00 0.00 0.00 32 1002.8
20260505173403 80 174 2.0 7.0 0.00 0.00 0.00 32 1002.7
20260505172900 81 174 1.0 6.0 0.00 0.00 0.00 31 1002.5
20260505172357 79 174 0.0 1.0 0.00 0.00 0.00 33 1003.0
20260505171857 80 174 2.0 3.0 0.00 0.00 0.00 33 1002.9
20260505171354 80 174 0.0 2.0 0.00 0.00 0.00 33 1003.0
20260505170850 79 174 1.0 2.0 0.00 0.00 0.00 35 1002.9
20260505170348 79 174 0.0 3.0 0.00 0.00 0.00 36 1003.1
20260505165843 78 174 0.0 2.0 0.00 0.00 0.00 34 1003.4
20260505165339 80 174 2.0 4.0 0.00 0.00 0.00 34 1003.6
20260505164835 79 174 0.0 3.0 0.00 0.00 0.00 33 1003.5
20260505164331 80 174 1.0 4.0 0.00 0.00 0.00 35 1003.6
20260505163830 79 174 1.0 1.0 0.00 0.00 0.00 35 1003.7
20260505163328 78 174 0.0 2.0 0.00 0.00 0.00 36 1004.0
20260505162826 79 174 2.0 6.0 0.00 0.00 0.00 35 1004.2
20260505162322 78 174 0.0 2.0 0.00 0.00 0.00 37 1004.4
20260505161819 79 174 2.0 4.0 0.00 0.00 0.00 35 1004.5
20260505161317 79 174 1.0 2.0 0.00 0.00 0.00 36 1004.5
20260505160814 78 174 1.0 6.0 0.00 0.00 0.00 36 1004.4
20260505160312 78 174 1.0 4.0 0.00 0.00 0.00 36 1004.6
20260505153250 74 174 0.0 3.0 0.00 0.00 0.00 38 1004.9
20260505152747 73 174 0.0 4.0 0.00 0.00 0.00 40 1004.7
20260505152243 74 174 1.0 4.0 0.00 0.00 0.00 38 1005.2
20260505151738 73 174 0.0 1.0 0.00 0.00 0.00 39 1005.3
20260505151236 73 174 2.0 3.0 0.00 0.00 0.00 38 1005.4
20260505150732 72 174 1.0 2.0 0.00 0.00 0.00 39 1005.3
20260505150229 72 174 0.0 4.0 0.00 0.00 0.00 40 1005.5
20260505140154 54 284 1.0 2.0 0.00 0.00 0.00 69 1005.3
20260505130118 51 284 0.0 0.0 0.00 0.00 0.00 71 1006.1
20260505124607 50 284 0.0 0.0 0.00 0.00 0.00 75 1006.4
20260505124103 50 284 0.0 0.0 0.00 0.00 0.00 75 1006.3
20260505123600 51 284 0.0 2.0 0.00 0.00 0.00 74 1006.1
20260505123057 50 284 0.0 0.0 0.00 0.00 0.00 75 1006.1
20260505122553 51 284 0.0 0.0 0.00 0.00 0.00 73 1005.8
20260505122051 49 284 0.0 0.0 0.00 0.00 0.00 75 1005.6
20260505121547 48 284 0.0 1.0 0.00 0.00 0.00 76 1005.9
20260505121044 48 284 0.0 0.0 0.00 0.00 0.00 77 1005.7
20260505120540 48 284 0.0 2.0 0.00 0.00 0.00 78 1006.1
20260505120036 47 284 0.0 0.0 0.00 0.00 0.00 79 1006.0
20260505115531 48 284 0.0 0.0 0.00 0.00 0.00 79 1006.1
20260505115029 47 284 0.0 0.0 0.00 0.00 0.00 79 1006.1
20260505114525 48 284 0.0 0.0 0.00 0.00 0.00 79 1006.0
20260505114021 48 284 0.0 0.0 0.00 0.00 0.00 81 1006.1
20260505113518 47 284 0.0 0.0 0.00 0.00 0.00 82 1006.2
20260505113014 47 284 0.0 0.0 0.00 0.00 0.00 82 1006.1
20260505112510 46 284 0.0 0.0 0.00 0.00 0.00 83 1006.1
20260505112008 46 284 0.0 0.0 0.00 0.00 0.00 84 1006.2
20260505111502 46 284 0.0 0.0 0.00 0.00 0.00 84 1006.0
20260505110959 46 284 0.0 0.0 0.00 0.00 0.00 85 1006.2
20260505110455 45 284 0.0 0.0 0.00 0.00 0.00 86 1006.3
20260505101927 44 284 0.0 0.0 0.00 0.00 0.00 86 1006.1
20260505101421 44 284 0.0 0.0 0.00 0.00 0.00 86 1006.1
20260505100917 44 284 0.0 0.0 0.00 0.00 0.00 86 1006.3
20260505100414 44 284 0.0 0.0 0.00 0.00 0.00 86 1006.2
20260505095909 44 284 0.0 0.0 0.00 0.00 0.00 86 1006.1
20260505095407 44 284 0.0 0.0 0.00 0.00 0.00 86 1006.2
20260505094903 44 284 0.0 0.0 0.00 0.00 0.00 86 1006.1
20260505094400 44 284 0.0 0.0 0.00 0.00 0.00 86 1006.1
20260505093855 43 284 0.0 0.0 0.00 0.00 0.00 86 1006.2
20260505093353 44 284 0.0 0.0 0.00 0.00 0.00 85 1006.4
20260505092850 44 284 0.0 0.0 0.00 0.00 0.00 85 1006.1
20260505092348 44 284 0.0 0.0 0.00 0.00 0.00 85 1006.0
20260505091845 44 284 0.0 0.0 0.00 0.00 0.00 85 1006.1
20260505091343 44 284 0.0 0.0 0.00 0.00 0.00 85 1006.1
20260505090841 44 284 0.0 0.0 0.00 0.00 0.00 84 1006.2
20260505090339 44 284 0.0 0.0 0.00 0.00 0.00 84 1006.1
20260505085836 44 284 0.0 0.0 0.00 0.00 0.00 84 1006.1
20260505085334 44 284 0.0 0.0 0.00 0.00 0.00 83 1006.2
20260505084831 45 284 0.0 0.0 0.00 0.00 0.00 83 1006.3
20260505084330 45 284 0.0 0.0 0.00 0.00 0.00 83 1006.4
20260505083826 45 284 0.0 0.0 0.00 0.00 0.00 83 1006.3
20260505083324 45 284 0.0 0.0 0.00 0.00 0.00 83 1006.4
20260505082820 45 284 0.0 0.0 0.00 0.00 0.00 83 1006.2
20260505082317 45 284 0.0 0.0 0.00 0.00 0.00 83 1006.4
20260505081813 45 284 0.0 0.0 0.00 0.00 0.00 83 1006.7
20260505081310 45 284 0.0 0.0 0.00 0.00 0.00 83 1006.5
20260505080807 46 284 0.0 0.0 0.00 0.00 0.00 81 1006.5
20260505080303 46 284 0.0 0.0 0.00 0.00 0.00 80 1006.7
20260505075758 46 284 0.0 0.0 0.00 0.00 0.00 79 1006.6
20260505075256 46 284 0.0 0.0 0.00 0.00 0.00 79 1006.5
20260505074753 46 284 0.0 0.0 0.00 0.00 0.00 79 1006.4
20260505074250 46 284 0.0 0.0 0.00 0.00 0.00 79 1006.7
20260505073747 47 284 0.0 0.0 0.00 0.00 0.00 79 1006.4
20260505073245 47 284 0.0 0.0 0.00 0.00 0.00 78 1006.3
20260505072742 47 284 0.0 0.0 0.00 0.00 0.00 78 1006.4
20260505072238 48 284 0.0 0.0 0.00 0.00 0.00 77 1006.5
20260505071733 48 284 0.0 0.0 0.00 0.00 0.00 76 1006.4
20260505071231 48 284 0.0 0.0 0.00 0.00 0.00 75 1006.4
20260505070728 48 284 0.0 0.0 0.00 0.00 0.00 75 1006.3
20260505070224 48 284 0.0 0.0 0.00 0.00 0.00 75 1006.2
20260505065720 48 284 0.0 0.0 0.00 0.00 0.00 75 1006.5
20260505065217 48 284 0.0 0.0 0.00 0.00 0.00 75 1006.3
20260505064714 48 284 0.0 0.0 0.00 0.00 0.00 75 1006.4
20260505064212 48 284 0.0 0.0 0.00 0.00 0.00 75 1006.6
20260505063709 48 284 0.0 0.0 0.00 0.00 0.00 76 1006.4
20260505063205 48 284 0.0 0.0 0.00 0.00 0.00 77 1006.5
20260505062701 48 284 0.0 0.0 0.00 0.00 0.00 77 1006.4
20260505062200 48 284 0.0 0.0 0.00 0.00 0.00 77 1006.4
20260505061656 48 284 0.0 0.0 0.00 0.00 0.00 77 1006.4
20260505061154 48 284 0.0 0.0 0.00 0.00 0.00 76 1006.4
20260505060651 48 284 0.0 0.0 0.00 0.00 0.00 76 1006.3
20260505060148 48 284 0.0 0.0 0.00 0.00 0.00 75 1006.6
20260505055643 48 284 0.0 0.0 0.00 0.00 0.00 75 1006.5
20260505055140 49 284 0.0 0.0 0.00 0.00 0.00 74 1006.4
20260505054638 49 284 0.0 0.0 0.00 0.00 0.00 74 1006.4
20260505054136 49 284 0.0 0.0 0.00 0.00 0.00 74 1006.4
20260505053633 50 284 0.0 0.0 0.00 0.00 0.00 73 1006.5
20260505053129 50 284 0.0 0.0 0.00 0.00 0.00 71 1006.4
20260505052626 51 284 0.0 0.0 0.00 0.00 0.00 70 1006.5
20260505052124 51 284 0.0 0.0 0.00 0.00 0.00 68 1006.3
20260505051621 51 284 0.0 0.0 0.00 0.00 0.00 67 1006.3
20260505051119 52 284 0.0 0.0 0.00 0.00 0.00 66 1006.4
20260505050616 53 284 0.0 1.0 0.00 0.00 0.00 65 1006.2
20260505050114 52 284 0.0 1.0 0.00 0.00 0.00 65 1006.4
20260505041544 54 284 0.0 0.0 0.00 0.00 0.00 60 1005.9
20260505041041 55 284 0.0 0.0 0.00 0.00 0.00 58 1006.0
20260505040538 55 284 0.0 0.0 0.00 0.00 0.00 58 1006.0
20260505040036 55 284 0.0 0.0 0.00 0.00 0.00 57 1005.8
20260505035531 53 284 0.0 0.0 0.00 0.00 0.00 61 1005.6
20260505035028 53 284 0.0 1.0 0.00 0.00 0.00 64 1005.5
20260505034525 52 284 0.0 0.0 0.00 0.00 0.00 66 1005.5
20260505034022 52 284 0.0 0.0 0.00 0.00 0.00 66 1005.6
20260505033519 52 284 0.0 0.0 0.00 0.00 0.00 65 1005.5
20260505033017 52 284 0.0 0.0 0.00 0.00 0.00 65 1005.6
20260505032514 52 284 0.0 0.0 0.00 0.00 0.00 67 1005.5
20260505032010 52 284 0.0 0.0 0.00 0.00 0.00 64 1005.7
20260505031508 52 284 0.0 0.0 0.00 0.00 0.00 65 1005.4
20260505031004 51 284 0.0 0.0 0.00 0.00 0.00 66 1005.3
20260505030501 51 284 0.0 0.0 0.00 0.00 0.00 67 1005.4
20260505025955 52 284 0.0 0.0 0.00 0.00 0.00 65 1005.2
20260505025453 52 284 0.0 0.0 0.00 0.00 0.00 63 1005.4
20260505024952 52 284 0.0 0.0 0.00 0.00 0.00 65 1005.2
20260505024449 52 284 0.0 0.0 0.00 0.00 0.00 65 1005.3
20260505023946 51 284 0.0 0.0 0.00 0.00 0.00 65 1005.5
20260505023443 51 284 0.0 0.0 0.00 0.00 0.00 66 1005.4
20260505022940 51 284 0.0 0.0 0.00 0.00 0.00 67 1005.3
20260505022438 52 284 0.0 0.0 0.00 0.00 0.00 67 1005.5
20260505021935 52 284 0.0 0.0 0.00 0.00 0.00 65 1005.6
20260505021431 51 284 0.0 0.0 0.00 0.00 0.00 65 1005.2
20260505020927 51 284 0.0 0.0 0.00 0.00 0.00 67 1005.3
20260505020422 51 284 0.0 0.0 0.00 0.00 0.00 67 1005.4
20260505015919 51 284 0.0 0.0 0.00 0.00 0.00 68 1005.2
20260505015417 51 284 0.0 0.0 0.00 0.00 0.00 70 1005.3
20260505014914 52 284 0.0 2.0 0.00 0.00 0.00 67 1005.3
20260505014411 52 284 0.0 0.0 0.00 0.00 0.00 64 1005.4
20260505013908 52 284 0.0 0.0 0.00 0.00 0.00 63 1005.1
20260505013404 53 284 0.0 0.0 0.00 0.00 0.00 62 1005.0
20260505012903 53 284 0.0 0.0 0.00 0.00 0.00 63 1005.0
20260505012400 53 284 0.0 0.0 0.00 0.00 0.00 63 1005.0
20260505011856 53 284 0.0 0.0 0.00 0.00 0.00 62 1005.1
20260505011353 53 284 0.0 0.0 0.00 0.00 0.00 63 1005.0
20260505010849 53 284 0.0 0.0 0.00 0.00 0.00 62 1004.9
20260505010345 53 284 0.0 0.0 0.00 0.00 0.00 63 1004.8
20260505005842 53 284 0.0 0.0 0.00 0.00 0.00 62 1004.8
20260505005338 53 284 0.0 0.0 0.00 0.00 0.00 62 1004.6
20260505004836 53 284 0.0 0.0 0.00 0.00 0.00 62 1004.5
20260505004332 53 284 0.0 0.0 0.00 0.00 0.00 61 1004.8
20260505003830 53 284 0.0 0.0 0.00 0.00 0.00 61 1004.7
20260505003327 53 284 0.0 0.0 0.00 0.00 0.00 61 1004.5